Location: Kawakawa
(35.3830°S, 174.0670°E)
Time: 13:49:27
(UTC+13:00)

A-11 Canister half - Pass Details

Date: 06 December 2019
Orbit: 1525 x 1684 km, 47.3° (Epoch: 26 January)

Event Time Altitude Azimuth Distance (km) Brightness Sun altitude
Rises 00:58:28 0° 243° (WSW) 4,705 11.9 -32.1°
Reaches altitude 10° 01:01:42 10° 236° (SW) 3,734 11.4 -32.2°
Maximum altitude 01:10:45 47° 163° (SSE) 1,995 9.8 -32.2°
Drops below altitude 10° 01:20:02 10° 91° (E) 3,832 11.1 -32.2°
Sets 01:23:23 0° 85° (E) 4,838 11.6 -32.2°
